STARLINK-35883, 66892

Orbit data source: Space-Track

STARLINK-35883, 66892 is a payload satellite owned by SpaceX/Seattle (US) in LEO that was launched on Thu, 04 Dec 2025 UTC via an FALCON 9 launch vehicle from the Air Force Western Test Range (AFWTR). Payload-class satellites include a variety of spacecraft equipped with specific instruments for various scientific and technological missions. These include communications satellites like Starlink; space stations such as the ISS; scientific satellites like the Hubble; Earth observation satellites from companies like Planet Labs, Umbra, and HawkEye 360; GPS; miniature CubeSats for education and research; and military/defense satellites.

Loading next visibility...
Identifier
66892, 2025-283Q
Orbit
LEO
Country
Flag of USUS
Related business
Manufacturer
SpaceX/Seattle
Mission
Operational Commercial Communications
Bus & Motor
STARLINK V2MO, Unknown motor
Mass
575 kg wet, ~530 kg dry
Launch date (UTC)
2025-12-04 (7 months ago)
Launch vehicle
FALCON 9
Launch site
Air Force Western Test Range (AFWTR)
Object type
Payload
Rocket body
Debris
Shape & HBR
Box + 2 Pan, 17.7 m
Radar Cross Section
36.964 m², Large (>1 m²)

Expand to show TLE details & history
Last TLE update: 1 day ago

TLE from 1 day ago
0 STARLINK-35883
1 66892U 25283Q   26170.57000823  .00009193  00000-0  32208-3 0  9992
2 66892  53.1583 270.8633 0001099  82.8796 277.2330 15.30203368 31443
Epoch: 2026-06-19T13:40Z
TLE epoch observation values (Epoch: 2026-06-19T13:40:48.711Z)
Latitude
0.00002°
Longitude
157.86326°
Altitude
476.01 km
Speed
7.629 km/s
True Right ascension
18h 03m 27s
True Declination
0° 00' 00"
Sunlit
Object was in full shadow at epoch
Visualization orbit readout
Latitude
Unknown
Longitude
Unknown
Altitude
Unknown
Speed
Unknown
Apparent Right ascension
Unknown
Apparent Declination
Unknown
Sunlit
N/A
Visualization observer readout
Local Sidereal Time
07:16:36
Azimuth
Unknown
Elevation
Unknown
Doppler factor
Unknown
Orbital elements
Apogee altitude
476.215 km
Perigee altitude
474.709 km
Semi-major axis
6,853.599 km
Eccentricity
0.00011
Inclination
53.1583°
RAAN
270.8633°
Arg. of periapsis
82.8796°
True anomaly
277.22051°
Mean anomaly
277.233°
Eccentric anomaly
277.22675°
Mean motion
3.8253 °/min
Orbital period
94.11 mins
BSTAR
0.00032208
Loading maneuver chart data...
Computing Atmospheric mass density...
Loading historical data...
Loading historical data...
Loading historical data...
Loading historical data...
Loading historical data...
Loading historical data...
Loading historical data...

Documentation

Showing up to 5 results
|